This is the latest recevied weather packets stored in our database for station/object W5ADC. If no packets are shown the sender has not sent any weather packets the latest 10 day(s).
| Time | Temp. | Humidity | Pressure | Rain* | Wind** | Luminosity | Snow |
|---|---|---|---|---|---|---|---|
| 1777905522 | 20° C | 67% | 1009.3 hPa | 0 mm | - | 242 W/m² | - |
| 1777905218 | 20° C | 67% | 1009.4 hPa | 0 mm | - | 238 W/m² | - |
| 1777904916 | 20° C | 67% | 1009.4 hPa | 0 mm | - | 399 W/m² | - |
| 1777904613 | 20° C | 68% | 1009.6 hPa | 0 mm | - | 343 W/m² | - |
| 1777904310 | 20° C | 68% | 1009.6 hPa | 0 mm | - | 300 W/m² | - |
| 1777904007 | 19.44° C | 69% | 1009.6 hPa | 0 mm | - | 313 W/m² | - |
| 1777903704 | 19.44° C | 69% | 1009.5 hPa | 0 mm | - | 309 W/m² | - |
| 1777903399 | 19.44° C | 69% | 1009.6 hPa | 0 mm | - | 201 W/m² | - |
| 1777903096 | 18.89° C | 70% | 1009.6 hPa | 0 mm | - | 250 W/m² | - |
| 1777902793 | 18.89° C | 70% | 1009.4 hPa | 0 mm | - | 157 W/m² | - |
| 1777902490 | 18.89° C | 70% | 1009.5 hPa | 0 mm | - | 213 W/m² | - |
| 1777902187 | 18.89° C | 71% | 1009.7 hPa | 0 mm | - | 223 W/m² | - |
| 1777901885 | 18.89° C | 71% | 1009.6 hPa | 0 mm | - | 192 W/m² | - |
| 1777901582 | 18.89° C | 71% | 1009.8 hPa | 0 mm | - | 182 W/m² | - |
| 1777901279 | 18.89° C | 72% | 1009.8 hPa | 0 mm | - | 147 W/m² | - |
| 1777900976 | 18.33° C | 72% | 1009.8 hPa | 0 mm | - | 182 W/m² | - |
| 1777900674 | 18.33° C | 72% | 1009.8 hPa | 0 mm | - | 161 W/m² | - |
| 1777900371 | 18.33° C | 73% | 1009.7 hPa | 0 mm | - | 100 W/m² | - |
| 1777900068 | 18.33° C | 73% | 1009.8 hPa | 0 mm | - | 105 W/m² | - |
| 1777899764 | 18.33° C | 73% | 1009.9 hPa | 0 mm | - | 113 W/m² | - |
| 1777899461 | 17.78° C | 73% | 1009.6 hPa | 0 mm | - | 82 W/m² | - |
| 1777899159 | 17.78° C | 73% | 1009.7 hPa | 0 mm | - | 90 W/m² | - |
| 1777898856 | 17.78° C | 73% | 1009.8 hPa | 0 mm | - | 77 W/m² | - |
| 1777898554 | 17.78° C | 73% | 1009.5 hPa | 0 mm | - | 73 W/m² | - |
| 1777898251 | 17.78° C | 73% | 1009.8 hPa | 0 mm | - | 65 W/m² | - |
* Rain latest hour (hover to see other rain measurements)
** Current wind speed in m/s (hover to see current wind gust speed)